Location: Arnolds Mill
(42.3415°N, 73.5951°W)
Time: 10:07:40
(UTC+00:00)

BlueWalker 3 - Pass Details

Date: 26 June 2024
Orbit: 480 x 492 km, 53.2° (Epoch: 13 July)

Event Time Altitude Azimuth Distance (km) Brightness Sun altitude
Rises 04:24:44 0° 310° (NW) 2,541 6.2 -23.9°
Reaches altitude 10° 04:27:10 10° 324° (NW) 1,659 5.4 -23.9°
Maximum altitude 04:30:21 26° 22° (NNE) 981 4.0 -24.0°
Enters shadow 04:32:39 15° 72° (ENE) 1,373 4.2 -24.1°
